Regional Weather Roundup
Issued by NWS

Home | Current Version | Previous Version | Text Only | Print | Product List | Glossary On
Versions: 1 2 3 4 5 6 7 8 9 10 11 12 13 14 15 16 17 18 19 20 21 22 23 24 25 26 27 28
000
ASUS45 KBOI 242210
RWRID
WEATHER ROUNDUP FOR IDAHO
NATIONAL WEATHER SERVICE BOISE ID
400 PM MDT THU APR 24 2014

NOTE: "FAIR" INDICATES FEW OR NO CLOUDS BELOW 12000 FEET
WITH NO SIGNIFICANT WEATHER AND/OR OBSTRUCTIONS TO VISIBILITY

IDZ012-014-242300-
SOUTHWEST IDAHO


CITY           SKY/WX    TMP DP  RH WIND       PRES   REMARKS
BOISE          CLOUDY    59  41  51 S5        29.88F
CALDWELL       CLOUDY    63  39  42 SE12      29.87F
MOUNTAIN HOME  MOSUNNY   63  36  36 VRB3      29.88F
$$

IDZ016-017-242300-
SOUTHCENTRAL IDAHO


CITY           SKY/WX    TMP DP  RH WIND       PRES   REMARKS
BURLEY         CLOUDY    58  37  45 VRB7      29.93F
JEROME         PTSUNNY   58  37  45 SW6       29.93F
TWIN FALLS     CLOUDY    59  37  44 SW10      29.93F
$$

IDZ019>023-242300-
SOUTHEAST IDAHO


CITY           SKY/WX    TMP DP  RH WIND       PRES   REMARKS
IDAHO FALLS    CLOUDY    51  35  54 SW23G33   29.94F
POCATELLO      PTSUNNY   56  35  45 W12       29.96F
REXBURG        PTSUNNY   49  36  61 S21G35    29.93F
$$

IDZ006-010-011-018-031-032-242300-
CENTRAL IDAHO MOUNTAINS


CITY           SKY/WX    TMP DP  RH WIND       PRES   REMARKS
MCCALL         RAIN      42  35  76 S12       29.88R
HAILEY         CLOUDY    46  37  71 SE7       29.94F
STANLEY          N/A     41  29  62 SW10G22   29.92F
SALMON         PTSUNNY   54  36  50 N21       29.83R
CHALLIS        PTSUNNY   58  22  24 W21G26    29.83F
$$

IDZ002-004-006-007-026-242300-
NORTHERN IDAHO


CITY           SKY/WX    TMP DP  RH WIND       PRES   REMARKS
LEWISTON       CLOUDY    54  40  59 S10       29.83F
LOWELL           N/A     50  47  89 N3        29.87S
COEUR D`ALENE  PTSUNNY   52  46  82 SW14      29.77R
MULLAN PASS    SNOW      32  32 100 S6        29.79R VSB 1/4 WCI  26
$$



USA.gov is the U.S. government's official web portal to all federal, state and local government web resources and services.